Regional Weather Roundup
Issued by NWS

Home | Current Version | Previous Version | Graphics & Text | Print | Product List | Glossary On
Versions: 1 2 3 4 5 6 7 8 9 10 11 12 13 14 15 16 17 18 19 20 21 22 23 24 25 26 27 28 29 30 31 32 33 34 35 36 37 38 39 40 41 42 43 44 45 46 47 48 49 50
000
ASUS43 KTOP 272208
RWRKS

WEATHER ROUNDUP FOR KANSAS
NATIONAL WEATHER SERVICE GOODLAND KS
500 PM CDT TUE JUN 27 2017

NOTE:  "FAIR" INDICATES FEW OR NO CLOUDS BELOW 12,000 FEET WITH NO
SIGNIFICANT WEATHER AND/OR OBSTRUCTIONS TO VISIBILITY.

KSZ001>006-013>018-027>032-041>047-272300-
NORTHWEST KANSAS

CITY           SKY/WX    TMP DP  RH WIND       PRES   REMARKS
GOODLAND       CLOUDY    90  52  27 S14       29.75F
HAYS           MOSUNNY   96  60  30 S22G32    29.76F HX  96
HILL CITY      SUNNY     96  55  25 S24G38    29.74F
RUSSELL        MOSUNNY   98  60  28 S22G32    29.77F HX  98
$$

KSZ061>065-074>080-084>089-272300-
SOUTHWEST KANSAS

CITY           SKY/WX    TMP DP  RH WIND       PRES   REMARKS
DODGE CITY     SUNNY     94  57  28 S22G33    29.82F
ELKHART          N/A     91  51  25 S18         N/A
GARDEN CITY    SUNNY     97  54  23 S28G38    29.80F HX  95
GREAT BEND     SUNNY     94  66  39 S22G32    29.80F HX  97
LIBERAL        SUNNY     94  59  31 S28G37    29.84F
PRATT          MOSUNNY   90  60  36 S21G35    29.85F
$$

KSZ066>073-081>083-090>101-272300-
SOUTHEAST KANSAS

CITY           SKY/WX    TMP DP  RH WIND       PRES   REMARKS
CHANUTE        SUNNY     86  63  45 S16G22    29.95F
COFFEYVILLE    SUNNY     88  66  48 S14       29.95F
HUTCHINSON     MOSUNNY   95  63  34 S23G35    29.85F HX  96
MEDICINE LODGE   N/A     95  62  33 S18G29    29.84F HX  96
NEWTON         SUNNY     87  71  58 SE23G29   29.89F
PARSONS        SUNNY     86  64  47 S10G17    29.97F
WICHITA INTL   MOSUNNY   92  68  45 S20G28    29.87F HX  96
WICHITA JABRA  MOSUNNY   87  71  58 SE18G30   29.88F
WINFIELD       SUNNY     87  68  52 S20G28    29.92F
$$

KSZ007>012-019>026-033>040-048>060-102>105-272300-
NORTHEAST KANSAS

CITY           SKY/WX    TMP DP  RH WIND       PRES   REMARKS
CONCORDIA      SUNNY     85  70  60 SE20G30   29.83F
EMPORIA        SUNNY     83  66  56 S16       29.92F
LAWRENCE       CLOUDY    83  67  58 SE17G24   29.94F
MANHATTAN      MOSUNNY   84  70  62 S17G24    29.87F
MARYSVILLE     MOSUNNY   81  68  65 S17G25    29.87F
OLATHE IND     PTSUNNY   80  65  59 S15G24    29.97F
OLATHE EXE     CLOUDY    80  66  62 S14       29.97F
SALINA         PTSUNNY   96  66  37 S23G32    29.82F HX  99
TOPEKA BILLARD CLOUDY    82  69  64 S14       29.92F
TOPEKA FORBES  MOSUNNY   83  69  62 SE16G22   29.93F
$$



USA.gov is the U.S. government's official web portal to all federal, state and local government web resources and services.